This is the latest recevied weather packets stored in our database for station/object DL8TF-13. If no packets are shown the sender has not sent any weather packets the latest 10 day(s).
| Time | Temp. | Humidity | Pressure | Rain* | Wind** | Luminosity | Snow |
|---|---|---|---|---|---|---|---|
| 1778231677 | 15.56° C | 68% | 986 hPa | - | - | - | - |
| 1778231076 | 15° C | 72% | 986 hPa | - | - | - | - |
| 1778230476 | 13.89° C | 71% | 986 hPa | - | - | - | - |
| 1778229876 | 13.89° C | 73% | 986 hPa | - | - | - | - |
| 1778229276 | 13.33° C | 78% | 986 hPa | - | - | - | - |
| 1778228676 | 12.78° C | 81% | 986 hPa | - | - | - | - |
| 1778228076 | 12.78° C | 87% | 986 hPa | - | - | - | - |
| 1778227476 | 12.22° C | 88% | 986 hPa | - | - | - | - |
| 1778226876 | 12.22° C | 91% | 986 hPa | - | - | - | - |
| 1778226276 | 11.11° C | 94% | 986 hPa | - | - | - | - |
| 1778225676 | 11.11° C | 95% | 986 hPa | - | - | - | - |
| 1778225076 | 10.56° C | 96% | 986 hPa | - | - | - | - |
| 1778224476 | 10° C | 95% | 986 hPa | - | - | - | - |
| 1778223876 | 10° C | 95% | 986 hPa | - | - | - | - |
| 1778223276 | 9.44° C | 94% | 986 hPa | - | - | - | - |
| 1778222676 | 8.89° C | 95% | 986 hPa | - | - | - | - |
| 1778222076 | 8.89° C | 93% | 986 hPa | - | - | - | - |
| 1778221475 | 8.89° C | 93% | 986 hPa | - | - | - | - |
| 1778220875 | 8.89° C | 95% | 986 hPa | - | - | - | - |
| 1778220275 | 8.33° C | 93% | 986 hPa | - | - | - | - |
| 1778219675 | 8.89° C | 92% | 986 hPa | - | - | - | - |
| 1778219075 | 8.33° C | 92% | 986 hPa | - | - | - | - |
| 1778218475 | 8.33° C | 93% | 986 hPa | - | - | - | - |
| 1778217875 | 7.78° C | 93% | 986 hPa | - | - | - | - |
| 1778217275 | 7.78° C | 93% | 986 hPa | - | - | - | - |
* Rain since midnight (hover to see other rain measurements)
** Current wind speed in m/s (hover to see current wind gust speed)